Location: Aufkirchen
(47.9603°N, 11.3653°E)
Time: 06:57:04
(UTC+01:00)

Transit 4A - Pass Details

Date: 28 November 2020
Orbit: 864 x 980 km, 66.8° (Epoch: 25 January)

Event Time Altitude Azimuth Distance (km) Brightness Sun altitude
Rises 08:40:58 0° 213° (SSW) 3,619 11.1 7.3°
Reaches altitude 10° 08:43:29 10° 214° (SW) 2,690 10.5 7.6°
Maximum altitude 08:49:49 87° 304° (NW) 982 8.2 8.3°
Drops below altitude 10° 08:56:16 10° 34° (NE) 2,740 10.3 9.1°
Sets 08:58:51 0° 35° (NE) 3,691 10.9 9.4°
